FW3092 Weather Reports


Display with metric or nautical units.
time (UTC)temp
F
wind
direction
speed
MPH
gust
MPH
rain 1hr
in
rain 24hr
in
rain mn
in
humidity
%
barometer
mb
20260904030018 70 324 0.0 0.0 0.00 0.32 0.17 90 957.3
20260904024517 70 324 0.0 1.0 0.00 0.45 0.17 90 957.4
20260904023020 70 324 0.0 2.0 0.00 0.45 0.17 90 957.4
20260904021527 70 324 0.0 2.0 0.00 0.45 0.17 90 957.5
20260904020016 70 324 0.0 1.0 0.00 0.45 0.17 89 957.6
20260904014515 70 324 0.0 0.0 0.00 0.96 0.17 89 957.8
20260904013015 70 324 0.0 0.0 0.00 0.96 0.17 89 957.9
20260904011514 70 324 0.0 0.0 0.00 0.96 0.17 89 957.9
20260904010014 70 324 0.0 0.0 0.00 0.96 0.17 89 958.0
20260904004516 70 324 0.0 3.0 0.00 0.96 0.17 89 957.8
20260904003022 70 325 0.0 2.0 0.00 0.96 0.17 88 957.6
20260904001511 70 298 0.0 0.0 0.00 0.96 0.17 88 957.4
20260904000012 71 298 0.0 0.0 0.00 0.96 0.17 87 957.4
20260903234511 71 298 0.0 2.0 0.00 0.96 0.17 87 957.5
20260903233018 71 298 0.0 2.0 0.04 0.96 0.17 87 957.5
20260903231513 72 296 0.0 3.0 0.04 0.96 0.17 86 957.6
20260903230011 73 280 1.0 4.0 0.04 0.96 0.17 85 957.6
20260903224517 75 270 1.0 11.0 0.04 0.96 0.17 83 957.4
20260903223013 78 308 1.0 2.0 0.00 0.92 0.13 82 957.2
20260903221507 78 308 0.0 1.0 0.00 0.92 0.13 81 957.1
20260903220007 78 306 0.0 3.0 0.00 0.92 0.13 81 957.1
20260903214509 78 306 0.0 4.0 0.00 0.92 0.13 81 956.9
20260903213005 78 275 1.0 3.0 0.00 0.92 0.13 81 957.2
20260903211503 78 275 1.0 4.0 0.00 0.92 0.13 81 957.3
20260903210003 78 274 0.0 5.0 0.00 0.92 0.13 81 957.4
20260903204502 77 5 3.0 6.0 0.00 0.92 0.13 82 957.5
20260903203001 77 280 1.0 5.0 0.00 0.92 0.13 82 957.7
20260903201600 77 275 1.0 6.0 0.00 0.92 0.13 82 957.6
20260903200100 78 282 1.0 3.0 0.00 0.92 0.13 81 957.5
20260903194559 78 306 1.0 4.0 0.00 0.92 0.13 80 957.4
20260903193058 79 275 2.0 4.0 0.00 0.92 0.13 80 957.5
20260903191557 79 305 2.0 9.0 0.00 0.92 0.13 80 957.7
20260903190055 78 275 2.0 8.0 0.00 0.92 0.13 79 957.9
20260903184601 78 300 3.0 7.0 0.00 0.92 0.13 80 957.9
20260903183053 77 285 3.0 10.0 0.00 0.92 0.13 80 958.1
20260903181555 77 311 8.0 11.0 0.00 0.92 0.13 80 958.1
20260903180058 78 243 7.0 12.0 0.00 0.92 0.13 79 958.2
20260903174548 78 249 6.0 12.0 0.00 0.92 0.13 83 958.2
20260903173046 77 238 5.0 10.0 0.00 0.92 0.13 82 958.3
20260903171546 76 254 5.0 9.0 0.00 0.92 0.13 83 958.4
20260903170048 75 244 4.0 8.0 0.00 0.92 0.13 83 958.6
20260903164541 75 285 1.0 10.0 0.00 0.92 0.13 83 958.5
20260903163044 75 267 7.0 11.0 0.00 0.92 0.13 85 958.6
20260903161533 74 298 6.0 13.0 0.00 0.92 0.13 85 958.8
20260903160035 73 249 6.0 10.0 0.00 0.92 0.13 87 958.8
20260903154526 71 236 7.0 11.0 0.00 1.05 0.13 88 959.1
20260903153024 70 251 6.0 10.0 0.00 1.05 0.13 88 959.4
20260903151523 70 211 6.0 10.0 0.00 1.05 0.13 89 959.4
20260903150023 70 254 5.0 10.0 0.00 1.05 0.13 89 959.2
20260903144522 70 255 5.0 10.0 0.00 1.31 0.13 90 959.1
20260903143021 70 257 6.0 10.0 0.00 1.31 0.13 92 959.1
20260903141517 69 251 7.0 12.0 0.00 1.31 0.13 92 958.9
20260903140016 68 246 7.0 11.0 0.00 1.31 0.13 92 959.0
20260903134512 68 280 7.0 12.0 0.00 1.32 0.13 92 959.0
20260903133013 67 259 6.0 11.0 0.00 1.32 0.13 92 958.9
20260903131509 67 262 8.0 12.0 0.00 1.32 0.13 92 959.0
20260903130006 67 226 7.0 11.0 0.00 1.32 0.13 92 959.1
20260903124503 66 234 5.0 13.0 0.00 1.32 0.13 92 959.2
20260903123108 66 257 6.0 9.0 0.00 1.32 0.13 92 959.1
20260903121558 66 236 3.0 6.0 0.00 1.32 0.13 92 958.9
20260903120122 66 221 3.0 7.0 0.00 1.32 0.13 92 958.8
20260903114603 65 241 2.0 5.0 0.00 1.32 0.13 92 958.7
20260903113051 64 217 1.0 4.0 0.00 1.32 0.13 92 958.7
20260903111549 64 229 2.0 4.0 0.00 1.32 0.13 92 958.6
20260903110059 65 217 3.0 8.0 0.00 1.32 0.13 92 958.3
20260903104547 64 240 3.0 9.0 0.00 1.32 0.13 92 958.3
20260903103046 64 240 5.0 10.0 0.00 1.32 0.13 92 958.4
20260903101548 64 206 4.0 10.0 0.00 1.32 0.13 92 958.5
20260903100143 64 230 5.0 9.0 0.00 1.32 0.13 92 958.6
20260903094544 63 212 4.0 8.0 0.00 1.32 0.13 92 958.6
20260903093043 63 232 3.0 8.0 0.00 1.32 0.13 92 958.4
20260903091541 63 220 3.0 6.0 0.01 1.32 0.13 92 958.8
20260903090045 63 217 3.0 5.0 0.02 1.32 0.13 92 958.7
20260903084541 63 229 2.0 7.0 0.02 1.32 0.13 92 958.4
20260903083045 63 212 3.0 6.0 0.02 1.32 0.13 92 958.4
20260903081540 63 217 2.0 5.0 0.01 1.31 0.12 92 958.7
20260903080037 63 213 2.0 4.0 0.00 1.30 0.11 92 958.6
20260903074537 63 222 1.0 4.0 0.00 1.30 0.11 92 958.8
20260903073046 64 225 2.0 8.0 0.00 1.30 0.11 92 958.7
20260903071535 64 227 5.0 10.0 0.00 1.30 0.11 92 958.7
20260903070034 64 221 4.0 10.0 0.00 1.30 0.11 92 958.6
20260903064534 64 208 4.0 8.0 0.00 1.30 0.11 92 958.9
20260903063031 64 231 3.0 9.0 0.00 1.30 0.11 92 958.7
20260903061546 64 231 5.0 10.0 0.00 1.30 0.11 92 958.8
20260903060029 64 219 5.0 10.0 0.00 1.30 0.11 92 959.1
20260903054528 64 200 4.0 8.0 0.00 1.30 0.11 92 959.1
20260903053027 64 186 3.0 10.0 0.02 1.30 0.11 92 959.0
20260903051526 64 232 4.0 10.0 0.08 1.30 0.11 92 959.3
20260903050028 64 213 6.0 10.0 0.11 1.30 0.11 92 959.3
20260903044523 64 229 6.0 12.0 0.22 1.30 0.11 91 958.9
20260903043021 65 211 9.0 16.0 0.21 1.28 0.09 92 959.2
20260903041528 65 240 8.0 13.0 0.16 1.22 0.03 91 960.2
20260903040012 66 220 10.0 20.0 0.15 1.19 0.00 91 960.5
20260903034512 66 246 5.0 9.0 0.06 1.08 1.08 91 960.5
20260903033015 66 194 5.0 10.0 0.07 1.07 1.07 91 958.9
20260903031518 65 228 4.0 11.0 0.09 1.05 1.05 92 959.6